[[{"header":{"parameterUnit":"m.s-1","parameterCategory":1,"la1":30.2991,"la2":30.254,"lo1":-89.0895,"lo2":-89.0444,"dy":0.0017,"dx":0.0017,"nx":28,"ny":28,"refTime":"2025-11-10T09:00:00:Z","depth":0,"parameterNumber":2,"parameterNumberName":"U-component_of_WINDS"},"data":[0,0,0,0,0,0,0,0,0,0,0,0,0,0,0,0,0,0,0,0,0,0,0,0,0,0,0,0,0,0,0,0,0,0,0,0,0,0,0,0,0,0,0,0,0,0,0,0,0,0,0,0,0,0,0,0,0,0,4.3273,4.3274,0,4.3324,4.3324,4.3325,4.3299,4.3298,4.3297,4.3295,4.3345,4.3348,4.335,0,0,0,0,0,0,0,0,0,0,0,0,0,4.3155,4.3157,4.3273,4.3274,4.3274,4.3323,4.3324,4.3325,4.33,4.3298,4.3296,4.3295,4.3344,4.3347,4.335,0,0,0,0,0,0,0,0,0,0,0,0,0,4.3206,4.3158,4.3273,4.3268,4.3268,4.3323,4.3324,4.3325,4.33,4.3298,4.3296,4.3294,4.3343,4.3347,4.3351,4.3414,0,0,4.3363,4.3364,0,0,0,0,0,0,0,0,4.3203,4.321,4.3268,4.3268,4.3268,4.3303,4.3301,4.3355,4.33,4.3288,4.3295,4.3293,4.3333,4.3337,4.3351,4.3416,4.3418,4.3363,4.3365,4.3367,4.3368,0,0,0,0,0,0,0,4.3199,4.3208,4.3293,4.3269,4.3269,4.3263,4.3268,4.3311,4.3321,4.3289,4.3287,4.3293,4.3332,4.3347,4.3352,4.3419,4.3363,4.3366,4.3369,4.337,4.3541,4.3543,0,0,0,0,0,0,4.3196,4.3205,4.3291,4.3294,4.323,4.3267,4.3272,4.3294,4.332,4.3322,4.3295,4.3292,4.3342,4.3348,4.3354,4.343,4.3367,4.337,4.3373,4.3539,4.3541,4.3544,0,0,0,0,0,0,4.3194,4.3204,4.3289,4.3249,4.326,4.3271,4.3295,4.3296,4.3311,4.3325,4.3326,4.3308,4.334,4.3348,4.34,4.3432,4.3372,4.3376,4.3536,4.3539,4.3543,4.3584,0,0,0,0,0,0,4.319,4.3203,4.3227,4.325,4.3262,4.3335,4.3297,4.3298,4.3318,4.3314,4.3338,4.334,4.334,4.3394,4.3404,4.3436,4.3379,4.3533,4.3537,4.3541,4.3579,4.3588,4.3595,0,0,0,0,0,4.3186,4.3236,4.3229,4.3239,4.3292,4.3336,4.3343,4.3342,4.332,4.3345,4.3354,4.3339,4.3427,4.34,4.341,4.3444,4.3531,4.3536,4.3541,4.3576,4.3586,4.3595,0,0,0,0,0,0,4.3215,4.3239,4.3231,4.3289,4.3311,4.3332,4.3362,4.3353,4.3381,4.3377,4.3374,4.3379,4.3433,4.3444,4.3413,4.3507,4.3476,4.3483,4.3498,4.3508,4.3516,4.3512,4.3382,0,0,0,0,0,4.3229,4.3263,4.3282,4.3331,4.3343,4.3351,4.337,4.3368,4.339,4.3399,4.3412,4.3434,4.3467,4.3488,4.3519,4.3581,4.3586,4.361,4.3618,4.3624,4.363,4.3666,4.3677,4.356,4.356,4.356,0,0,4.3256,4.3273,4.3295,4.3338,4.3354,4.339,4.3359,4.3397,4.3424,4.3405,4.3455,4.3465,4.349,4.3548,4.3573,4.3558,4.3664,4.3631,4.3636,4.3638,4.3672,4.3683,4.3693,4.3564,4.3563,4.3563,0,0,4.3324,4.3341,4.3385,4.3403,4.3429,4.3435,4.3446,4.3469,4.3475,4.3526,4.3513,4.3544,4.36,4.3619,4.3636,4.3714,4.3702,4.3725,4.3766,4.38,4.3809,4.3817,4.3846,4.3857,4.3731,4.3731,4.3731,0,4.3355,4.3409,4.3408,4.3449,4.3469,4.3455,4.35,4.3517,4.3552,4.3566,4.3548,4.362,4.3635,4.3698,4.3718,4.3731,4.3744,4.3721,4.3808,4.3816,4.3824,4.3851,4.3862,4.3734,4.3733,4.3733,4.3733,0,4.3446,4.3483,4.3516,4.3552,4.3575,4.3617,4.3624,4.3648,4.3645,4.3652,4.3705,4.3723,4.3758,4.3773,4.3769,4.3836,4.3825,4.3808,4.3776,4.3837,4.3863,4.3874,4.3737,4.3736,4.3736,4.3735,0,0,4.3532,4.3569,4.3581,4.3597,4.3627,4.3656,4.3699,4.3734,4.3755,4.378,4.3816,4.3865,4.3851,4.387,4.3868,4.3899,4.3961,4.3878,4.3878,4.3893,4.4037,4.405,4.4062,4.3954,4.3956,4.3957,4.4035,0,4.3603,4.3678,4.368,4.3749,4.3784,4.3773,4.381,4.3833,4.3842,4.3873,4.3883,4.3918,4.3895,4.3907,4.3936,4.3947,4.399,4.3942,4.3987,4.3989,4.3981,4.4075,4.4089,4.4161,4.4045,4.4047,4.4048,0,4.3695,4.3725,4.3798,4.3824,4.3839,4.3872,4.3906,4.3937,4.3962,4.3967,4.399,4.3984,4.4029,4.3996,4.4058,4.4025,4.4044,4.4052,4.4055,4.4059,4.4022,4.4082,4.4184,4.4195,4.4064,4.4063,4.4062,0,4.3751,4.381,4.3861,4.3876,4.3908,4.3932,4.3946,4.397,4.3992,4.4022,4.4036,4.407,4.4089,4.4115,4.412,4.4096,4.4182,4.4149,4.4187,4.4187,4.4205,4.4204,4.4312,4.4218,4.4218,4.4217,4.4217,0,4.383,4.3875,4.3887,4.3919,4.397,4.3972,4.4022,4.4035,4.4057,4.4091,4.4083,4.4115,4.4119,4.4153,4.4157,4.4208,4.4216,4.4221,4.4221,4.4222,4.4221,4.4234,4.4229,4.422,4.422,4.4219,4.4219,0,4.3901,4.3911,4.3966,4.3993,4.4001,4.4037,4.406,4.4091,4.41,4.4143,4.4154,4.4168,4.4207,4.4215,4.426,4.4263,4.4324,4.432,4.4316,4.4315,4.4353,4.4349,4.4472,4.4489,4.4384,4.4385,4.4386,0,4.3951,4.3985,4.4016,4.4039,4.4055,4.4092,4.4115,4.412,4.4144,4.4177,4.4204,4.4243,4.4274,4.4338,4.4352,4.4388,4.4384,4.4425,4.4389,4.4389,4.4385,4.4383,4.4387,4.4431,4.4432,4.4433,4.4434,0,4.4038,4.4042,4.4075,4.4112,4.414,4.4168,4.4195,4.4214,4.4223,4.4251,4.4291,4.4316,4.4364,4.4403,4.4439,4.4454,4.4446,4.4446,4.4456,4.4457,4.4453,4.4456,4.4335,4.4442,4.4442,4.4441,4.4441,4.444,4.41,4.4131,4.4158,4.4197,4.4218,4.4244,4.4275,4.4289,4.4323,4.4363,4.4364,4.4409,4.4436,4.4484,4.4501,4.4537,4.4524,4.4539,4.4543,4.4547,4.4551,4.4448,4.4543,4.4543,4.4543,4.4543,4.4542,0,4.4187,4.4205,4.424,4.4279,4.431,4.4301,4.4331,4.4357,4.4397,4.4423,4.4455,4.4503,4.4541,4.456,4.4598,4.4623,4.462,4.4632,4.463,4.4634,4.456,4.4547,4.4634,4.4634,4.4634,4.4634,4.4634,4.4634,4.4236,4.4289,4.4296,4.436,4.4377,4.4422,4.444,4.4464,4.4485,4.454,4.4572,4.4584,4.4608,4.4648,4.4683,4.4687,4.4702,4.4716,4.4719,4.4649,4.4639,4.463,4.4618,4.4719,4.4719,4.4791,4.4791,4.4792]},{"header":{"parameterUnit":"m.s-1","parameterCategory":1,"la1":30.2991,"la2":30.254,"lo1":-89.0895,"lo2":-89.0444,"dy":0.0017,"dx":0.0017,"nx":28,"ny":28,"refTime":"2025-11-10T09:00:00:Z","depth":0,"parameterNumber":3,"parameterNumberName":"V-component_of_WINDS"},"data":[0,0,0,0,0,0,0,0,0,0,0,0,0,0,0,0,0,0,0,0,0,0,0,0,0,0,0,0,0,0,0,0,0,0,0,0,0,0,0,0,0,0,0,0,0,0,0,0,0,0,0,0,0,0,0,0,0,0,-6.9577,-6.9578,0,-6.9689,-6.9691,-6.9692,-6.9665,-6.9663,-6.9661,-6.9659,-6.977,-6.9775,-6.9779,0,0,0,0,0,0,0,0,0,0,0,0,0,-6.9336,-6.934,-6.9576,-6.9578,-6.9579,-6.9689,-6.9691,-6.9692,-6.9665,-6.9663,-6.966,-6.9658,-6.9768,-6.9774,-6.978,0,0,0,0,0,0,0,0,0,0,0,0,0,-6.9443,-6.9342,-6.9576,-6.9579,-6.9581,-6.9689,-6.9691,-6.9693,-6.9666,-6.9663,-6.966,-6.9657,-6.9766,-6.9773,-6.9781,-6.9891,0,0,-6.9803,-6.9807,0,0,0,0,0,0,0,0,-6.9437,-6.9452,-6.9577,-6.9579,-6.9581,-6.966,-6.9646,-6.9759,-6.9667,-6.9634,-6.9659,-6.9655,-6.9736,-6.9745,-6.9773,-6.9896,-6.9901,-6.9804,-6.9809,-6.9812,-6.9814,0,0,0,0,0,0,0,-6.943,-6.9447,-6.9621,-6.9579,-6.9582,-6.9574,-6.9586,-6.9668,-6.9701,-6.9636,-6.9635,-6.9648,-6.9736,-6.9766,-6.9776,-6.9903,-6.9804,-6.981,-6.9815,-6.9818,-7.0125,-7.0128,0,0,0,0,0,0,-6.9421,-6.9441,-6.9617,-6.9624,-6.95,-6.9581,-6.9594,-6.9638,-6.97,-6.9707,-6.9651,-6.9647,-6.9755,-6.9767,-6.978,-6.9915,-6.9812,-6.9819,-6.9823,-7.0121,-7.0125,-7.0129,0,0,0,0,0,0,-6.9416,-6.9437,-6.9613,-6.9533,-6.9554,-6.9589,-6.9638,-6.9642,-6.9672,-6.9712,-6.9717,-6.9676,-6.9753,-6.9769,-6.9865,-6.9918,-6.9822,-6.9829,-7.0117,-7.0122,-7.0127,-7.0185,0,0,0,0,0,0,-6.941,-6.9436,-6.9478,-6.9534,-6.9559,-6.9697,-6.9641,-6.9646,-6.9686,-6.9681,-6.9737,-6.9743,-6.9752,-6.9854,-6.9872,-6.9927,-6.9835,-7.0112,-7.0119,-7.0126,-7.0178,-7.0192,-7.0203,0,0,0,0,0,-6.9401,-6.9489,-6.9481,-6.9502,-6.9613,-6.97,-6.9714,-6.9724,-6.969,-6.9733,-6.9759,-6.9741,-6.9909,-6.9864,-6.9884,-6.9942,-7.0109,-7.0117,-7.0125,-7.0173,-7.0189,-7.0203,0,0,0,0,0,0,-6.9436,-6.9496,-6.9488,-6.9596,-6.9644,-6.9695,-6.975,-6.9741,-6.9798,-6.9791,-6.9799,-6.9812,-6.991,-6.9935,-6.9883,-7.0053,-7.0004,-7.0017,-7.0033,-7.0049,-7.0061,-7.0053,-6.9841,0,0,0,0,0,-6.9457,-6.9524,-6.9572,-6.9663,-6.9687,-6.9715,-6.9753,-6.9757,-6.9806,-6.9825,-6.9857,-6.9905,-6.9968,-7.001,-7.007,-7.0182,-7.0194,-7.0232,-7.0244,-7.0254,-7.0265,-7.0328,-7.0345,-7.0157,-7.0156,-7.0156,0,0,-6.95,-6.9541,-6.9582,-6.9671,-6.9708,-6.9777,-6.9731,-6.9805,-6.9856,-6.9836,-6.9929,-6.9954,-7.0007,-7.0112,-7.016,-7.0136,-7.032,-7.0265,-7.0272,-7.0278,-7.0338,-7.0356,-7.0372,-7.0162,-7.0161,-7.016,0,0,-6.9613,-6.9651,-6.9732,-6.9771,-6.9829,-6.9847,-6.9867,-6.9921,-6.9938,-7.0032,-7.0019,-7.0079,-7.0188,-7.0227,-7.0261,-7.0393,-7.0379,-7.0412,-7.0476,-7.0537,-7.0552,-7.0566,-7.0614,-7.0631,-7.0423,-7.0423,-7.0423,0,-6.9659,-6.9763,-6.9774,-6.985,-6.989,-6.9877,-6.996,-6.9996,-7.007,-7.0098,-7.0071,-7.021,-7.0244,-7.0359,-7.0391,-7.0419,-7.0442,-7.0405,-7.055,-7.0563,-7.0575,-7.0621,-7.0639,-7.0427,-7.0426,-7.0426,-7.0425,0,-6.9817,-6.9889,-6.9947,-7.0022,-7.0068,-7.0147,-7.017,-7.0215,-7.0216,-7.0237,-7.0334,-7.0375,-7.0445,-7.0473,-7.0473,-7.0588,-7.0572,-7.0547,-7.0498,-7.0597,-7.0641,-7.0658,-7.0432,-7.0431,-7.043,-7.0429,0,0,-6.9954,-7.0036,-7.0057,-7.0092,-7.0156,-7.0212,-7.0291,-7.0361,-7.0401,-7.0452,-7.0519,-7.0613,-7.0592,-7.063,-7.0635,-7.0689,-7.0792,-7.0658,-7.0659,-7.0682,-7.0923,-7.0942,-7.0962,-7.0783,-7.0787,-7.0789,-7.0919,0,-7.0074,-7.0214,-7.0228,-7.0353,-7.0421,-7.0411,-7.0479,-7.0526,-7.0548,-7.0608,-7.0632,-7.0699,-7.0665,-7.0689,-7.0742,-7.0768,-7.0841,-7.0759,-7.0845,-7.0848,-7.0833,-7.0985,-7.1004,-7.1124,-7.0936,-7.0939,-7.0941,0,-7.0232,-7.0292,-7.0425,-7.0482,-7.0511,-7.0572,-7.0639,-7.0697,-7.075,-7.0762,-7.0808,-7.0806,-7.0887,-7.0835,-7.0947,-7.0891,-7.0927,-7.0946,-7.0951,-7.0959,-7.0901,-7.0998,-7.1163,-7.1181,-7.0968,-7.0965,-7.0964,0,-7.0321,-7.0434,-7.0529,-7.0559,-7.0627,-7.0671,-7.0701,-7.0751,-7.0794,-7.0852,-7.088,-7.0946,-7.0982,-7.1033,-7.1049,-7.101,-7.1161,-7.111,-7.1173,-7.1173,-7.1205,-7.1203,-7.1379,-7.1228,-7.1228,-7.1227,-7.1227,0,-7.0454,-7.0536,-7.057,-7.0628,-7.072,-7.0735,-7.0825,-7.0853,-7.0898,-7.0961,-7.0956,-7.1015,-7.1033,-7.1095,-7.1108,-7.12,-7.1215,-7.1228,-7.123,-7.1229,-7.1228,-7.1253,-7.1245,-7.1232,-7.1231,-7.123,-7.1229,0,-7.0568,-7.0594,-7.0697,-7.0755,-7.0771,-7.0836,-7.0885,-7.0942,-7.0964,-7.1044,-7.1064,-7.1098,-7.1172,-7.1193,-7.1281,-7.129,-7.1397,-7.1392,-7.138,-7.138,-7.1443,-7.1438,-7.1642,-7.167,-7.15,-7.1501,-7.1503,0,-7.0651,-7.0714,-7.078,-7.0823,-7.0856,-7.0925,-7.0969,-7.0987,-7.1032,-7.1099,-7.1148,-7.1221,-7.128,-7.1398,-7.143,-7.1498,-7.1494,-7.1562,-7.1504,-7.1502,-7.1497,-7.1493,-7.15,-7.1572,-7.1574,-7.1575,-7.1577,0,-7.0797,-7.0808,-7.0872,-7.0942,-7.0996,-7.1051,-7.1104,-7.1139,-7.1164,-7.1216,-7.1293,-7.1339,-7.143,-7.1503,-7.1572,-7.1603,-7.1595,-7.1595,-7.1613,-7.1612,-7.1604,-7.1611,-7.1411,-7.159,-7.1588,-7.1587,-7.1587,-7.1586,-7.0899,-7.0956,-7.1012,-7.1084,-7.1127,-7.1177,-7.1234,-7.1265,-7.1329,-7.1406,-7.1412,-7.1495,-7.1548,-7.164,-7.1675,-7.1739,-7.1719,-7.1746,-7.1753,-7.1759,-7.1765,-7.1593,-7.1752,-7.1751,-7.1751,-7.1751,-7.175,0,-7.1045,-7.1082,-7.1149,-7.1225,-7.1282,-7.1271,-7.133,-7.1379,-7.1453,-7.1504,-7.1563,-7.1652,-7.1723,-7.1762,-7.1834,-7.1878,-7.1876,-7.1896,-7.1893,-7.1901,-7.1778,-7.1756,-7.1897,-7.1897,-7.1897,-7.1897,-7.1897,-7.1897,-7.1128,-7.1225,-7.1242,-7.136,-7.1395,-7.1478,-7.1513,-7.1559,-7.1601,-7.1701,-7.1761,-7.1786,-7.1833,-7.1908,-7.1973,-7.1983,-7.2009,-7.2032,-7.204,-7.1924,-7.1909,-7.1895,-7.1874,-7.2038,-7.2038,-7.2157,-7.2158,-7.2159]}]]